星链-11093 [DTC] (STARLINK-11093 [DTC] )

导读

STARLINK-11093是美国太空探索技术公司SpaceX星链星座中的一颗卫星,于2024年4月7日发射入轨。星链计划旨在构建全球卫星互联网星座,为全球偏远地区、海洋空域等提供低延迟宽带网络服务,该卫星的入轨进一步扩充了星链星座的在轨卫星规模,推进全球网络覆盖进程。

基本信息
目录编号:
59423
目录名称:
STARLINK-11093
国际标识:
2024-065C
轨道中心:
EARTH
卫星名称:
星链-11093 [DTC]
卫星全名:
星链-11093 [DTC] (STARLINK-11093 [DTC] )
卫星状态:
在轨 (已飞行887 天)
发射日期:
2024-04-07 UTC
国别 :
美国 (US)
星等 :
--
该卫星已列入 空间交会检测服务 Space Conjunction Data Service (SCDS) ,当前飞行风险评估等级: 无高风险
轨道信息
数据来源 国际轨道数据
星历时间: 2026-09-10T14:32:29+0800
1天前
查看轨道信息
半长轴: 6737.868km
偏心率: 0.0001333
轨道倾角: 53.160°
近地点辐角 78.432°
升交点赤经 263.978°
平近点角 281.685°
近地点: 358.832km
远地点: 360.63km
周期: 91.737分钟
每日圈数: 15.697087
详细信息
固有亮度:
5
最大亮度:
0.5
卫星平台:
Starlink v2.0 mini
覆盖范围:
全球
运营商:
太空探索技术公司
运营商所在国:
美国
制造商(研发单位):
太空探索技术公司
制造商所在国:
美国
使用方式:
暂无
卫星简介
星链(Starlink)计划是由太空探索技术公司(SpaceX)提出的一个巨型低轨卫星互联网星座项目,计划在2019年至2024年间在太空搭建由约1.2万颗卫星组成的“星链”网络,其中1584颗将部署在地球上空550千米处的近地轨道,并从2020年开始工作。该卫星仍在工作。
2D轨道图
3D轨道图
轨道高度分析图
轨道倾角分析图
轨道综合分析图
查看轨道综合分析图
交会数据列表
事件ID 空间交会对象 最接近时刻(TCA) 交会距离 交会风险概率(CRP) 交会风险指数(CRI) 操作
CDM_260912-152305-942306-201721
2026-09-12T
15:23:28+0000
1.445 km
极远距离
3.868367E-6 低风险 0.47
CDM_260913-042204-931905-942323
OBJECT E (49319)
2026-09-13T
04:22:10+0000
2.694 km
极远距离
1.475735E-6 低风险 0.38
与全量物体交会距离演化趋势
与全量物体交会风险概率演化趋势